Location: Tamazert
(32.6352°N, 5.2072°W)
Time: 04:35:08
(UTC+00:00)

Vanguard 1 Rocket - Pass Details

Date: 07 October 2022
Orbit: 650 x 4225 km, 34.3° (Epoch: 05 December)

Event Time Altitude Azimuth Distance (km) Brightness Sun altitude
Rises 18:27:51 0° 242° (WSW) 8,430 13.7 -7.1°
Reaches altitude 10° 18:33:45 10° 242° (WSW) 7,424 13.2 -8.4°
Maximum altitude 18:59:21 80° 160° (SSE) 3,360 10.1 -13.8°
Enters shadow 19:12:19 18° 77° (ENE) 4,311 10.2 -16.5°
Drops below altitude 10° 19:14:17 10° 76° (ENE) 4,717 - -16.9°
Sets 19:17:05 0° 75° (ENE) 5,366 - -17.5°
